FHV1143 KPIT-KBOS

Flight info

Callsign FHV1143
Flight time 1h 10m
Altitude 37000
Route TYROO PSB J49 HNK PONCT JFUND2
Aircraft A320/M-SDE3FGHIRWY/LB1

Departure

Time 2026-05-06 02:16
Airport Pittsburgh International Airport (KPIT)

Arrival

Time 2026-05-06 03:26
Airport Boston Logan International Airport (KBOS)
Time Latitude Longitude Altitude Speed Heading
2026-05-06 01:42 40.49267 -80.24271 1151 ft 0 kts
2026-05-06 02:00 40.49257 -80.24273 1150 ft 2 kts
2026-05-06 02:00 40.49241 -80.24278 1150 ft 2 kts 28°
2026-05-06 02:00 40.49227 -80.24290 1149 ft 2 kts 48°
2026-05-06 02:01 40.49217 -80.24307 1149 ft 2 kts 69°
2026-05-06 02:01 40.49214 -80.24319 1149 ft 1 kts 84°
2026-05-06 02:03 40.49214 -80.24318 1149 ft 1 kts 84°
2026-05-06 02:03 40.49226 -80.24307 1149 ft 1 kts
2026-05-06 02:04 40.49212 -80.24369 1148 ft 13 kts 194°
2026-05-06 02:04 40.49195 -80.24367 1148 ft 0 kts 176°
2026-05-06 02:05 40.49157 -80.24349 1147 ft 9 kts 139°
2026-05-06 02:05 40.49144 -80.24256 1147 ft 14 kts 93°
2026-05-06 02:06 40.49140 -80.24114 1148 ft 16 kts 91°
2026-05-06 02:06 40.49113 -80.24000 1149 ft 12 kts 153°
2026-05-06 02:06 40.49065 -80.23914 1148 ft 15 kts 94°
2026-05-06 02:06 40.49062 -80.23759 1147 ft 18 kts 93°
2026-05-06 02:07 40.49058 -80.23589 1149 ft 19 kts 91°
2026-05-06 02:07 40.49051 -80.23409 1147 ft 21 kts 92°
2026-05-06 02:07 40.49047 -80.23195 1145 ft 25 kts 91°
2026-05-06 02:07 40.49042 -80.22966 1146 ft 26 kts 91°
2026-05-06 02:08 40.49036 -80.22725 1143 ft 21 kts 90°
2026-05-06 02:08 40.49030 -80.22564 1145 ft 18 kts 93°
2026-05-06 02:08 40.49025 -80.22392 1143 ft 20 kts 91°
2026-05-06 02:08 40.49034 -80.22195 1143 ft 22 kts 90°
2026-05-06 02:09 40.49033 -80.21991 1145 ft 23 kts 90°
2026-05-06 02:09 40.49022 -80.21771 1143 ft 25 kts 94°
2026-05-06 02:09 40.49009 -80.21536 1143 ft 26 kts 104°
2026-05-06 02:09 40.48985 -80.21353 1142 ft 19 kts 93°
2026-05-06 02:10 40.48980 -80.21176 1142 ft 20 kts 91°
2026-05-06 02:10 40.48978 -80.21092 1142 ft 3 kts 92°
2026-05-06 02:10 40.48978 -80.21090 1142 ft 0 kts 92°
2026-05-06 02:14 40.48978 -80.21082 1142 ft 5 kts 92°
2026-05-06 02:14 40.48974 -80.20983 1142 ft 13 kts 101°
2026-05-06 02:15 40.48901 -80.20950 1145 ft 15 kts 223°
2026-05-06 02:15 40.48896 -80.21110 1142 ft 27 kts 271°
2026-05-06 02:15 40.48911 -80.21703 1143 ft 101 kts 271°
2026-05-06 02:15 40.48942 -80.22886 1148 ft 156 kts 272°
2026-05-06 02:16 40.48966 -80.24423 1557 ft 169 kts 271°
2026-05-06 02:16 40.48978 -80.25964 2305 ft 169 kts 270°
2026-05-06 02:16 40.48987 -80.27516 3012 ft 173 kts 269°
2026-05-06 02:16 40.48997 -80.29172 3465 ft 189 kts 269°
2026-05-06 02:17 40.49016 -80.30977 3855 ft 211 kts 270°
2026-05-06 02:17 40.49054 -80.33025 4259 ft 237 kts 271°
2026-05-06 02:17 40.49315 -80.35258 4828 ft 259 kts 289°
2026-05-06 02:17 40.50392 -80.37205 5711 ft 272 kts 317°
2026-05-06 02:18 40.52115 -80.38331 6673 ft 287 kts 342°
2026-05-06 02:18 40.54145 -80.38450 7587 ft 297 kts 359°
2026-05-06 02:18 40.56226 -80.38222 8451 ft 303 kts
2026-05-06 02:18 40.58346 -80.37953 9246 ft 310 kts
2026-05-06 02:19 40.60475 -80.37577 10036 ft 319 kts 11°
2026-05-06 02:19 40.62600 -80.36273 10467 ft 351 kts 36°
2026-05-06 02:19 40.64207 -80.33726 10759 ft 377 kts 64°
2026-05-06 02:19 40.64890 -80.30364 11251 ft 386 kts 86°
2026-05-06 02:20 40.65300 -80.23230 12645 ft 396 kts 90°
2026-05-06 02:20 40.65425 -80.19579 13361 ft 403 kts 91°
2026-05-06 02:20 40.65551 -80.15937 14136 ft 404 kts 90°
2026-05-06 02:21 40.65703 -80.12227 14836 ft 408 kts 90°
2026-05-06 02:21 40.65883 -80.08498 15445 ft 411 kts 89°
2026-05-06 02:21 40.66077 -80.04730 16129 ft 415 kts 89°
2026-05-06 02:21 40.66277 -80.00925 16802 ft 418 kts 89°
2026-05-06 02:22 40.66478 -79.97091 17439 ft 421 kts 89°
2026-05-06 02:22 40.66676 -79.93233 18114 ft 423 kts 90°
2026-05-06 02:22 40.66873 -79.89358 18754 ft 426 kts 90°
2026-05-06 02:22 40.67067 -79.85449 19321 ft 430 kts 90°
2026-05-06 02:23 40.67259 -79.81494 19851 ft 435 kts 89°
2026-05-06 02:23 40.67450 -79.77504 20359 ft 439 kts 89°
2026-05-06 02:23 40.67644 -79.73470 20854 ft 443 kts 89°
2026-05-06 02:23 40.67836 -79.69398 21341 ft 448 kts 89°
2026-05-06 02:24 40.68028 -79.65288 21818 ft 451 kts 89°
2026-05-06 02:24 40.68223 -79.61142 22299 ft 455 kts 89°
2026-05-06 02:24 40.68419 -79.56961 22750 ft 459 kts 89°
2026-05-06 02:24 40.68617 -79.52748 23186 ft 462 kts 89°
2026-05-06 02:25 40.68811 -79.48560 23615 ft 466 kts 89°
2026-05-06 02:25 40.69004 -79.44284 24054 ft 469 kts 89°
2026-05-06 02:25 40.69194 -79.39974 24466 ft 473 kts 89°
2026-05-06 02:25 40.69383 -79.35635 24874 ft 476 kts 89°
2026-05-06 02:26 40.69575 -79.31272 25289 ft 478 kts 89°
2026-05-06 02:26 40.69768 -79.26886 25709 ft 480 kts 89°
2026-05-06 02:26 40.69962 -79.22483 26110 ft 483 kts 89°
2026-05-06 02:26 40.70158 -79.18057 26511 ft 485 kts 89°
2026-05-06 02:27 40.70354 -79.13611 26898 ft 487 kts 89°
2026-05-06 02:27 40.70547 -79.09147 27277 ft 489 kts 89°
2026-05-06 02:27 40.70739 -79.04658 27647 ft 492 kts 89°
2026-05-06 02:27 40.70927 -79.00149 27999 ft 494 kts 89°
2026-05-06 02:28 40.71111 -78.95622 28342 ft 496 kts 89°
2026-05-06 02:28 40.71294 -78.91074 28675 ft 499 kts 89°
2026-05-06 02:28 40.71480 -78.86499 28993 ft 501 kts 88°
2026-05-06 02:28 40.71667 -78.81905 29292 ft 503 kts 88°
2026-05-06 02:29 40.71851 -78.77297 29598 ft 505 kts 88°
2026-05-06 02:29 40.72033 -78.72668 29907 ft 507 kts 88°
2026-05-06 02:29 40.72213 -78.68022 30195 ft 508 kts 88°
2026-05-06 02:29 40.72390 -78.63362 30538 ft 510 kts 88°
2026-05-06 02:30 40.72565 -78.58695 30943 ft 509 kts 88°
2026-05-06 02:30 40.72739 -78.54040 31316 ft 509 kts 88°
2026-05-06 02:30 40.72914 -78.49386 31673 ft 508 kts 88°
2026-05-06 02:30 40.73087 -78.44734 32031 ft 508 kts 88°
2026-05-06 02:31 40.73340 -78.40097 32368 ft 508 kts 82°
2026-05-06 02:31 40.74033 -78.35538 32686 ft 507 kts 72°
2026-05-06 02:31 40.75182 -78.31231 33019 ft 503 kts 64°
2026-05-06 02:31 40.76793 -78.27151 33352 ft 500 kts 54°
2026-05-06 02:32 40.78757 -78.23396 33692 ft 497 kts 50°
2026-05-06 02:32 40.80764 -78.19686 34027 ft 496 kts 50°
2026-05-06 02:32 40.82754 -78.15972 34382 ft 495 kts 50°
2026-05-06 02:32 40.84735 -78.12254 34721 ft 495 kts 50°
2026-05-06 02:33 40.86709 -78.08532 35049 ft 494 kts 50°
2026-05-06 02:33 40.88014 -78.06071 35274 ft 493 kts 50°
2026-05-06 02:33 40.92579 -77.97373 35943 ft 493 kts 51°
2026-05-06 02:34 40.94409 -77.93542 36234 ft 493 kts 53°
2026-05-06 02:34 40.96149 -77.89641 36498 ft 492 kts 55°
2026-05-06 02:34 40.97814 -77.85752 36703 ft 493 kts 55°
2026-05-06 02:34 40.99488 -77.81800 36853 ft 493 kts 54°
2026-05-06 02:35 41.01212 -77.77780 36881 ft 497 kts 54°
2026-05-06 02:35 41.04690 -77.69881 36879 ft 500 kts 53°
2026-05-06 02:36 41.08233 -77.61960 36880 ft 499 kts 54°
2026-05-06 02:36 41.11749 -77.54042 36877 ft 498 kts 54°
2026-05-06 02:37 41.15242 -77.46116 36874 ft 497 kts 54°
2026-05-06 02:37 41.18124 -77.39532 36858 ft 496 kts 54°
2026-05-06 02:38 41.22182 -77.30270 36855 ft 497 kts 54°
2026-05-06 02:38 41.25073 -77.23676 36855 ft 497 kts 54°
2026-05-06 02:39 41.28544 -77.15729 36850 ft 496 kts 54°
2026-05-06 02:39 41.32003 -77.07779 36849 ft 497 kts 54°
2026-05-06 02:40 41.35463 -76.99812 36849 ft 498 kts 54°
2026-05-06 02:40 41.38914 -76.91826 36854 ft 498 kts 54°
2026-05-06 02:41 41.42366 -76.83831 36862 ft 498 kts 55°
2026-05-06 02:41 41.45788 -76.75881 36870 ft 498 kts 55°
2026-05-06 02:42 41.49224 -76.67869 36873 ft 498 kts 55°
2026-05-06 02:42 41.52659 -76.59856 36862 ft 497 kts 55°
2026-05-06 02:43 41.56085 -76.51835 36877 ft 498 kts 55°
2026-05-06 02:43 41.59500 -76.43798 36885 ft 497 kts 55°
2026-05-06 02:44 41.62903 -76.35783 36877 ft 496 kts 55°
2026-05-06 02:44 41.66313 -76.27756 36874 ft 497 kts 56°
2026-05-06 02:45 41.69711 -76.19702 36877 ft 497 kts 56°
2026-05-06 02:45 41.73110 -76.11634 36880 ft 498 kts 56°
2026-05-06 02:46 41.76515 -76.03551 36889 ft 498 kts 56°
2026-05-06 02:46 41.79904 -75.95450 36899 ft 499 kts 56°
2026-05-06 02:47 41.83284 -75.87334 36900 ft 498 kts 56°
2026-05-06 02:47 41.86642 -75.79282 36906 ft 498 kts 56°
2026-05-06 02:48 41.90016 -75.71173 36911 ft 498 kts 56°
2026-05-06 02:48 41.93369 -75.63064 36896 ft 496 kts 56°
2026-05-06 02:49 41.96714 -75.54958 36902 ft 496 kts 56°
2026-05-06 02:49 42.00063 -75.46842 36902 ft 496 kts 57°
2026-05-06 02:50 42.03410 -75.38715 36913 ft 497 kts 57°
2026-05-06 02:50 42.06757 -75.30569 36898 ft 497 kts 56°
2026-05-06 02:51 42.10324 -75.22623 36894 ft 495 kts 53°
2026-05-06 02:51 42.14070 -75.14842 36888 ft 495 kts 53°
2026-05-06 02:52 42.17791 -75.07014 36904 ft 496 kts 54°
2026-05-06 02:52 42.21436 -74.99116 36900 ft 496 kts 54°
2026-05-06 02:53 42.25058 -74.91199 36904 ft 496 kts 54°
2026-05-06 02:53 42.28683 -74.83291 36914 ft 495 kts 54°
2026-05-06 02:54 42.32307 -74.75376 36913 ft 496 kts 54°
2026-05-06 02:54 42.35929 -74.67461 36915 ft 494 kts 55°
2026-05-06 02:55 42.39513 -74.59607 36923 ft 493 kts 55°
2026-05-06 02:55 42.43114 -74.51712 36910 ft 493 kts 55°
2026-05-06 02:56 42.46705 -74.43803 36911 ft 493 kts 55°
2026-05-06 02:56 42.50285 -74.35885 36912 ft 493 kts 56°
2026-05-06 02:57 42.53855 -74.27970 36908 ft 492 kts 56°
2026-05-06 02:57 42.57414 -74.20052 36890 ft 491 kts 56°
2026-05-06 02:58 42.60967 -74.12134 36889 ft 491 kts 56°
2026-05-06 02:58 42.64513 -74.04210 36881 ft 491 kts 56°
2026-05-06 02:59 42.68058 -73.96260 36876 ft 492 kts 56°
2026-05-06 02:59 42.71597 -73.88308 36874 ft 492 kts 57°
2026-05-06 02:59 42.73097 -73.84120 36870 ft 494 kts 68°
2026-05-06 03:00 42.74097 -73.79647 36875 ft 495 kts 77°
2026-05-06 03:00 42.74607 -73.70350 36861 ft 494 kts 91°
2026-05-06 03:01 42.74540 -73.60979 36852 ft 497 kts 90°
2026-05-06 03:01 42.74480 -73.51568 36852 ft 498 kts 91°
2026-05-06 03:02 42.74402 -73.42142 36854 ft 497 kts 91°
2026-05-06 03:02 42.74305 -73.32757 36738 ft 492 kts 91°
2026-05-06 03:02 42.74255 -73.28122 36489 ft 488 kts 91°
2026-05-06 03:03 42.74206 -73.23512 36238 ft 486 kts 91°
2026-05-06 03:03 42.74157 -73.18913 35993 ft 487 kts 91°
2026-05-06 03:03 42.74104 -73.14299 35718 ft 489 kts 91°
2026-05-06 03:03 42.73883 -73.09665 34811 ft 494 kts 99°
2026-05-06 03:04 42.73350 -73.05033 33949 ft 497 kts 101°
2026-05-06 03:04 42.72804 -73.00372 33050 ft 501 kts 100°
2026-05-06 03:04 42.72254 -72.95665 32035 ft 506 kts 101°
2026-05-06 03:04 42.71701 -72.90913 30942 ft 512 kts 101°
2026-05-06 03:05 42.71144 -72.86128 29870 ft 509 kts 101°
2026-05-06 03:05 42.70594 -72.81394 28810 ft 505 kts 101°
2026-05-06 03:05 42.70053 -72.76749 28223 ft 490 kts 101°
2026-05-06 03:05 42.69520 -72.72218 27505 ft 481 kts 101°
2026-05-06 03:06 42.68994 -72.67777 26826 ft 471 kts 102°
2026-05-06 03:06 42.68478 -72.63434 26161 ft 461 kts 102°
2026-05-06 03:06 42.67969 -72.59179 25511 ft 452 kts 102°
2026-05-06 03:06 42.67468 -72.55012 24868 ft 443 kts 102°
2026-05-06 03:07 42.66967 -72.50890 24237 ft 441 kts 102°
2026-05-06 03:07 42.66460 -72.46795 23613 ft 438 kts 102°
2026-05-06 03:07 42.65953 -72.42724 23038 ft 436 kts 102°
2026-05-06 03:07 42.65454 -72.38675 22424 ft 433 kts 102°
2026-05-06 03:08 42.64962 -72.34661 21980 ft 427 kts 102°
2026-05-06 03:08 42.64480 -72.30715 21632 ft 420 kts 102°
2026-05-06 03:08 42.64015 -72.26813 21334 ft 417 kts 102°
2026-05-06 03:08 42.63568 -72.22937 20793 ft 415 kts 102°
2026-05-06 03:09 42.63111 -72.19070 20260 ft 412 kts 103°
2026-05-06 03:09 42.62658 -72.15240 19730 ft 410 kts 102°
2026-05-06 03:09 42.62216 -72.11440 19190 ft 405 kts 102°
2026-05-06 03:09 42.61784 -72.07674 18677 ft 403 kts 102°
2026-05-06 03:10 42.61351 -72.03917 18153 ft 402 kts 103°
2026-05-06 03:10 42.60909 -72.00180 17652 ft 400 kts 103°
2026-05-06 03:10 42.60457 -71.96483 17209 ft 396 kts 103°
2026-05-06 03:10 42.60001 -71.92811 16700 ft 393 kts 103°
2026-05-06 03:11 42.59541 -71.89161 16267 ft 390 kts 103°
2026-05-06 03:11 42.59084 -71.85542 15749 ft 389 kts 103°
2026-05-06 03:11 42.58630 -71.81944 15314 ft 385 kts 104°
2026-05-06 03:11 42.58137 -71.78400 14655 ft 379 kts 105°
2026-05-06 03:12 42.57601 -71.74932 14208 ft 374 kts 106°
2026-05-06 03:12 42.57052 -71.71541 13731 ft 363 kts 107°
2026-05-06 03:12 42.56507 -71.68234 13248 ft 357 kts 107°
2026-05-06 03:12 42.55967 -71.64958 12795 ft 354 kts 107°
2026-05-06 03:13 42.55438 -71.61706 12335 ft 352 kts 107°
2026-05-06 03:13 42.54906 -71.58464 11882 ft 353 kts 108°
2026-05-06 03:13 42.54301 -71.55266 11568 ft 349 kts 110°
2026-05-06 03:13 42.53643 -71.52113 11228 ft 346 kts 111°
2026-05-06 03:14 42.52967 -71.48995 10891 ft 344 kts 111°
2026-05-06 03:14 42.52300 -71.45924 10558 ft 344 kts 111°
2026-05-06 03:14 42.51631 -71.42821 10229 ft 342 kts 111°
2026-05-06 03:14 42.50983 -71.39763 10085 ft 334 kts 111°
2026-05-06 03:15 42.50359 -71.36778 9864 ft 327 kts 111°
2026-05-06 03:15 42.49754 -71.33825 9536 ft 324 kts 110°
2026-05-06 03:15 42.49167 -71.30877 9093 ft 324 kts 110°
2026-05-06 03:15 42.48584 -71.27917 8637 ft 326 kts 111°
2026-05-06 03:16 42.47997 -71.24953 8262 ft 324 kts 111°
2026-05-06 03:16 42.47406 -71.22006 7838 ft 324 kts 111°
2026-05-06 03:16 42.46834 -71.19091 7410 ft 319 kts 108°
2026-05-06 03:16 42.46652 -71.16087 6828 ft 322 kts 89°
2026-05-06 03:17 42.47105 -71.13120 6358 ft 323 kts 70°
2026-05-06 03:17 42.48058 -71.10404 6036 ft 312 kts 63°
2026-05-06 03:17 42.49115 -71.07972 5994 ft 290 kts 50°
2026-05-06 03:17 42.50525 -71.06068 6003 ft 282 kts 31°
2026-05-06 03:18 42.52163 -71.04819 5850 ft 261 kts 13°
2026-05-06 03:18 42.53854 -71.03987 5445 ft 258 kts 11°
2026-05-06 03:18 42.55540 -71.03163 5101 ft 257 kts 12°
2026-05-06 03:18 42.57194 -71.02345 4834 ft 255 kts 13°
2026-05-06 03:19 42.58878 -71.01489 4560 ft 254 kts 14°
2026-05-06 03:19 42.60394 -71.00231 4272 ft 261 kts 45°
2026-05-06 03:19 42.61294 -70.98132 3966 ft 257 kts 81°
2026-05-06 03:19 42.61327 -70.95815 3718 ft 244 kts 109°
2026-05-06 03:20 42.59818 -70.92240 3121 ft 202 kts 166°
2026-05-06 03:20 42.58542 -70.91610 3012 ft 194 kts 174°
2026-05-06 03:20 42.57239 -70.91142 3005 ft 193 kts 178°
2026-05-06 03:21 42.55961 -70.91095 3006 ft 179 kts 199°
2026-05-06 03:21 42.54789 -70.91620 3006 ft 177 kts 205°
2026-05-06 03:21 42.53629 -70.92187 3005 ft 178 kts 206°
2026-05-06 03:21 42.52454 -70.92760 2993 ft 180 kts 206°
2026-05-06 03:22 42.51278 -70.93332 2848 ft 177 kts 206°
2026-05-06 03:22 42.50132 -70.93890 2651 ft 174 kts 205°
2026-05-06 03:22 42.49003 -70.94439 2432 ft 172 kts 204°
2026-05-06 03:22 42.47882 -70.94987 2202 ft 171 kts 203°
2026-05-06 03:23 42.46784 -70.95519 2003 ft 164 kts 203°
2026-05-06 03:23 42.45741 -70.96023 1777 ft 152 kts 202°
2026-05-06 03:23 42.44795 -70.96482 1613 ft 134 kts 202°
2026-05-06 03:23 42.43942 -70.96897 1421 ft 127 kts 202°
2026-05-06 03:24 42.43119 -70.97297 1242 ft 125 kts 202°
2026-05-06 03:24 42.42316 -70.97685 1079 ft 123 kts 200°
2026-05-06 03:24 42.41508 -70.98079 911 ft 122 kts 201°
2026-05-06 03:24 42.40702 -70.98472 753 ft 124 kts 201°
2026-05-06 03:25 42.39901 -70.98862 592 ft 123 kts 201°
2026-05-06 03:25 42.39098 -70.99239 426 ft 122 kts 202°
2026-05-06 03:25 42.38300 -70.99617 259 ft 121 kts 204°
2026-05-06 03:25 42.37517 -71.00017 83 ft 120 kts 203°
2026-05-06 03:26 42.36757 -71.00385 26 ft 104 kts 200°
2026-05-06 03:26 42.36239 -71.00636 27 ft 55 kts 200°
2026-05-06 03:26 42.36019 -71.00758 27 ft 26 kts 218°
2026-05-06 03:26 42.35905 -71.00934 26 ft 24 kts 228°
2026-05-06 03:27 42.35836 -71.01100 26 ft 19 kts 262°
2026-05-06 03:27 42.35848 -71.01289 29 ft 21 kts 278°
2026-05-06 03:27 42.35873 -71.01495 29 ft 23 kts 286°
2026-05-06 03:27 42.35890 -71.01594 28 ft 14 kts 288°
2026-05-06 03:28 42.35929 -71.01646 26 ft 5 kts 335°
2026-05-06 03:28 42.35949 -71.01658 29 ft 5 kts 335°
2026-05-06 03:28 42.35974 -71.01681 25 ft 4 kts 315°
2026-05-06 03:28 42.35990 -71.01703 25 ft 1 kts 315°
2026-05-06 03:29 42.35992 -71.01705 26 ft 0 kts 315°